This demonstration page uses our WeatherBlox Daily Observations layout. Learn more.

Left ArrowRight Arrow

Hourly Observations for October 23, 2016

Temp ( °F °C ) Dew Point ( °F °C ) Humidity (%) Winds ( mph kmh ) Pressure ( in mb ) Visibility ( mi km ) Precip ( " mm )
12:54 am 00:54 Clear 59 15 48 8.9 67 67 S 12 19 29.85 1011 10 16.0934 0 0
1:54 am 01:54 Clear 61 16.1 47 8.3 60 60 SSW 12 19 29.86 1011 10 16.0934 0 0
2:54 am 02:54 Clear 59 15 47 8.3 64 64 SSW 10 17 29.88 1012 10 16.0934 0 0
3:54 am 03:54 Clear 58 14.4 46 7.8 65 65 W 7 11 29.91 1013 10 16.0934 0 0
4:54 am 04:54 Clear 49 9.4 44 6.7 83 83 S 6 9 29.93 1013 10 16.0934 0 0
5:54 am 05:54 Clear 52 11.1 46 7.8 80 80 WNW 3 6 29.96 1014 10 16.0934 0 0
6:54 am 06:54 Clear 45 7.2 43 6.1 93 93 N 3 6 30 1016 10 16.0934 0 0
7:54 am 07:54 Sunny 46 7.8 42 5.6 86 86 Calm 30.04 1017 10 16.0934 0 0
8:54 am 08:54 Sunny 50 10 45 7.2 83 83 Calm 30.07 1018 10 16.0934 0 0
9:54 am 09:54 Sunny 58 14.4 42 5.6 56 56 NNE 12 19 30.1 1019 10 16.0934 0 0
10:54 am 10:54 Sunny 62 16.7 39 3.9 43 43 NNE 16 26 30.11 1020 10 16.0934 0 0
11:54 am 11:54 Sunny 65 18.3 37 2.8 36 36 N 14 22 30.12 1020 10 16.0934 0 0
12:54 pm 12:54 Sunny 67 19.4 35 1.7 31 31 NNE 13 20 30.13 1020 10 16.0934 0 0
1:54 pm 13:54 Sunny 71 21.7 36 2.2 28 28 NNE 14 22 30.11 1020 10 16.0934 0 0
2:54 pm 14:54 Sunny 72 22.2 34 1.1 25 25 N 15 24 30.11 1020 10 16.0934 0 0
3:54 pm 15:54 Sunny 73 22.8 32 0 22 22 N 14 22 30.12 1020 10 16.0934 0 0
4:54 pm 16:54 Sunny 72 22.2 33 0.6 24 24 N 12 19 30.15 1021 10 16.0934 0 0
5:54 pm 17:54 Sunny 66 18.9 36 2.2 33 33 N 9 15 30.16 1021 10 16.0934 0 0
6:54 pm 18:54 Clear 51 10.6 36 2.2 56 56 N 10 17 30.2 1023 10 16.0934 0 0
7:54 pm 19:54 Clear 51 10.6 34 1.1 52 52 N 7 11 30.22 1023 10 16.0934 0 0
8:54 pm 20:54 Clear 52 11.1 34 1.1 50 50 N 8 13 30.23 1024 10 16.0934 0 0
9:54 pm 21:54 Clear 52 11.1 35 1.7 53 53 N 9 15 30.25 1024 10 16.0934 0 0
10:54 pm 22:54 Clear 46 7.8 35 1.7 66 66 N 9 15 30.27 1025 10 16.0934 0 0
11:54 pm 23:54 Clear 48 8.9 38 3.3 68 68 N 10 17 30.28 1025 10 16.0934 0 0

Powered by AerisWeather